Location: Berlise
(49.6641°N, 4.1077°E)
Time: 02:10:15
(UTC+00:00)

SL-16 R/B - Pass Details

Date: 27 January 2021
Orbit: 842 x 846 km, 71.0° (Epoch: 28 February)

Event Time Altitude Azimuth Distance (km) Brightness Sun altitude
Exits shadow 04:18:31 13° 355° (N) 2,260 4.4 -29.7°
Drops below altitude 10° 04:19:41 10° 6° (N) 2,479 4.7 -29.5°
Sets 04:23:11 0° 27° (NNE) 3,418 5.8 -28.9°
